Regional Weather Roundup
Issued by NWS

Current Version | Previous Version | Text Only | Print | Product List | Glossary On
Versions: 1 2 3 4 5 6 7 8 9 10 11 12 13 14 15 16 17 18 19 20 21 22 23 24 25 26 27 28 29 30 31 32 33 34 35 36 37 38 39 40 41 42 43 44 45 46 47 48 49 50
000
ASUS44 KJAN 050110
RWRMS

MISSISSIPPI HOURLY WEATHER ROUNDUP
NATIONAL WEATHER SERVICE JACKSON MS
800 PM CDT MON MAY 04 2015

NOTE: "FAIR: INDICATES FEW OR NO CLOUDS BELOW 12,000 FEET WITH NO
SIGNIFICANT WEATHER AND/OR OBSTRUCTIONS TO VISIBILITY.

MSZ001>002-007>008-010>013-018>021-025>028-034>036-050200-
NORTHWEST MISSISSIPPI

CITY           SKY/WX    TMP DP  RH WIND       PRES   REMARKS
CLARKSDALE     FAIR      77  55  47 SE8       30.14R
CLEVELAND      FAIR      77  60  55 SE7       30.12S
GREENWOOD      CLEAR     71  61  70 CALM      30.14S
GREENVILLE     PTCLDY    79  56  45 SE7       30.11S
OLIVE BRANCH   PTCLDY    73  55  53 S5        30.15S
OXFORD         LGT RAIN  72  55  56 SE5       30.18R
TUNICA         CLEAR     73  54  49 SE8       30.13S
$$

MSZ003>006-009-014>017-022>024-029>033-037>039-050200-
NORTHEAST MISSISSIPPI

CITY           SKY/WX    TMP DP  RH WIND       PRES   REMARKS
COLUMBUS AFB   CLEAR     72  55  55 SE5       30.17S
CORINTH        FAIR      72  54  53 S3        30.17R
GOLDN TRIANGLE CLEAR     75  52  43 SE7       30.17S
STARKVILLE     FAIR      70  59  68 E3        30.17S
TUPELO         CLEAR     76  50  40 S6        30.17S
$$

MSZ040-058-050200-
CENTRAL MISSISSIPPI

CITY           SKY/WX    TMP DP  RH WIND       PRES   REMARKS
JACKSON INTL   PTCLDY    74  58  57 SE5       30.14R
JACKSON HAWKNS MOCLDY    77  57  50 SE6       30.14R
MERIDIAN KEY   CLEAR     74  53  48 E6        30.17R
MERIDIAN NAS   CLEAR     73  52  47 E6        30.18R
RAYMOND        FAIR      72  66  83 CALM      30.13S
VICKSBURG      PTCLDY    73  64  73 E3        30.12S
$$

MSZ059>079-050200-
SOUTH MISSISSIPPI

CITY           SKY/WX    TMP DP  RH WIND       PRES   REMARKS
BROOKHAVEN     FAIR      73  61  64 CALM      30.16R
HATTIESBURG    PTCLDY    76  58  53 S9        30.17R
MCCOMB         CLEAR     72  60  66 SE8       30.15R
NATCHEZ        PTCLDY    73  63  68 SE6       30.13R
PINE BELT      PTCLDY    75  57  53 S8        30.17S
$$

MSZ080>082-050200-
COASTAL MISSISSIPPI

CITY           SKY/WX    TMP DP  RH WIND       PRES   REMARKS
BAY ST LOUIS   PTCLDY    73  63  68 MISG      30.16S
BILOXI         PTCLDY    75  63  66 SE9       30.17S
PASCAGOULA     PTCLDY    67  62  84 CALM      30.17F
GULFPORT       PTCLDY    74  63  68 SE10      30.16S
$$


USA.gov is the U.S. government's official web portal to all federal, state and local government web resources and services.